When you browse on this site, cookies collect data to enhance your experience and personalize the content and advertising you see.
Visit our Privacy Policy to learn more. By continuing to use the site, you agree to this use of cookies and data.
  • In United Kingdom
  • List of Countries
  • For 7 days
  • Water Temperature
  • Weather Map
  • Weather Widgets
  • user-avatar
    Login

    Hourly Weather Nocera Inferiore

    Today, 20 September, Friday

    Time Temperature Precipitation Wind Pressure Humidity
    00:00 +22°C° 0 mm 3 mps 759 mmHg 72%
    01:00 +22°C° 0 mm 3 mps 759 mmHg 73%
    02:00 +22°C° 0 mm 3 mps 759 mmHg 72%
    03:00 +21°C° 0 mm 4 mps 759 mmHg 71%
    04:00 +21°C° 0 mm 4 mps 759 mmHg 70%
    05:00 +21°C° 0 mm 4 mps 759 mmHg 67%
    06:00 +21°C° 0 mm 4 mps 759 mmHg 64%
    07:00 +20°C° 0 mm 5 mps 759 mmHg 61%
    08:00 +21°C° 0 mm 4 mps 759 mmHg 54%
    09:00 +22°C° 0 mm 4 mps 760 mmHg 47%
    10:00 +25°C° 0 mm 4 mps 760 mmHg 41%
    11:00 +26°C° 0 mm 3 mps 760 mmHg 38%
    12:00 +27°C° 0 mm 3 mps 760 mmHg 35%
    13:00 +28°C° 0 mm 3 mps 760 mmHg 32%
    14:00 +27°C° 0 mm 3 mps 760 mmHg 32%
    15:00 +27°C° 0 mm 2 mps 760 mmHg 31%
    16:00 +27°C° 0 mm 2 mps 760 mmHg 31%
    17:00 +26°C° 0 mm 3 mps 760 mmHg 35%
    18:00 +24°C° 0 mm 3 mps 760 mmHg 40%
    19:00 +22°C° 0 mm 3 mps 760 mmHg 44%
    20:00 +21°C° 0 mm 3 mps 761 mmHg 46%
    21:00 +20°C° 0 mm 3 mps 761 mmHg 48%
    22:00 +20°C° 0 mm 4 mps 761 mmHg 50%
    23:00 +19°C° 0 mm 3 mps 761 mmHg 51%

    Tomorrow, 21 September, Saturday

    Time Temperature Precipitation Wind Pressure Humidity
    00:00 +19°C° 0 mm 3 mps 761 mmHg 52%
    01:00 +18°C° 0 mm 3 mps 761 mmHg 53%
    02:00 +18°C° 0 mm 3 mps 761 mmHg 53%
    03:00 +18°C° 0 mm 3 mps 761 mmHg 52%
    04:00 +18°C° 0 mm 3 mps 761 mmHg 52%
    05:00 +18°C° 0 mm 3 mps 761 mmHg 50%
    06:00 +18°C° 0 mm 3 mps 761 mmHg 48%
    07:00 +19°C° 0 mm 3 mps 761 mmHg 46%
    08:00 +21°C° 0 mm 2 mps 761 mmHg 39%
    09:00 +25°C° 0 mm 2 mps 761 mmHg 32%
    10:00 +27°C° 0 mm 1 mps 762 mmHg 24%
    11:00 +28°C° 0 mm 1 mps 762 mmHg 24%
    12:00 +29°C° 0 mm 1 mps 762 mmHg 23%
    13:00 +30°C° 0 mm 2 mps 761 mmHg 22%
    14:00 +29°C° 0 mm 2 mps 761 mmHg 26%
    15:00 +29°C° 0 mm 2 mps 761 mmHg 30%
    16:00 +28°C° 0 mm 2 mps 761 mmHg 34%
    17:00 +27°C° 0 mm 1 mps 761 mmHg 39%
    18:00 +26°C° 0 mm 1 mps 761 mmHg 43%
    19:00 +24°C° 0 mm 1 mps 761 mmHg 47%
    20:00 +24°C° 0 mm 1 mps 761 mmHg 47%
    21:00 +24°C° 0 mm 1 mps 761 mmHg 47%
    22:00 +24°C° 0 mm 1 mps 761 mmHg 47%
    23:00 +23°C° 0 mm 1 mps 761 mmHg 49%

    Day after tomorrow, 22 September, Sunday

    Time Temperature Precipitation Wind Pressure Humidity
    00:00 +23°C° 0 mm 1 mps 761 mmHg 51%
    01:00 +23°C° 0 mm 1 mps 761 mmHg 53%
    02:00 +23°C° 0 mm 1 mps 761 mmHg 53%
    03:00 +23°C° 0 mm 2 mps 760 mmHg 54%
    04:00 +23°C° 0 mm 2 mps 760 mmHg 55%
    05:00 +23°C° 0 mm 2 mps 760 mmHg 53%
    06:00 +23°C° 0 mm 2 mps 760 mmHg 51%
    07:00 +24°C° 0 mm 2 mps 759 mmHg 49%
    08:00 +25°C° 0.1 mm 2 mps 760 mmHg 47%
    09:00 +26°C° 0.1 mm 2 mps 760 mmHg 45%
    10:00 +28°C° 0.1 mm 3 mps 760 mmHg 43%
    11:00 +28°C° 0.3 mm 3 mps 760 mmHg 44%
    12:00 +29°C° 0.3 mm 3 mps 759 mmHg 46%
    13:00 +29°C° 0.3 mm 3 mps 759 mmHg 47%
    14:00 +28°C° 0.3 mm 3 mps 758 mmHg 51%
    15:00 +28°C° 0.3 mm 3 mps 758 mmHg 56%
    16:00 +27°C° 0.3 mm 2 mps 758 mmHg 60%
    17:00 +26°C° 0.2 mm 2 mps 758 mmHg 63%
    18:00 +26°C° 0.2 mm 1 mps 758 mmHg 66%
    19:00 +25°C° 0.2 mm 1 mps 758 mmHg 69%
    20:00 +25°C° 0.1 mm 1 mps 758 mmHg 69%
    21:00 +25°C° 0.1 mm 1 mps 758 mmHg 70%
    22:00 +25°C° 0.1 mm 1 mps 758 mmHg 70%
    23:00 +25°C° 0.2 mm 1 mps 758 mmHg 72%

    23 September, Monday

    Time Temperature Precipitation Wind Pressure Humidity
    00:00 +24°C° 0.2 mm 1 mps 758 mmHg 73%
    01:00 +24°C° 0.2 mm 1 mps 757 mmHg 74%
    02:00 +24°C° 0.2 mm 1 mps 757 mmHg 74%
    03:00 +24°C° 0.2 mm 1 mps 756 mmHg 74%
    04:00 +24°C° 0.2 mm 2 mps 756 mmHg 74%
    05:00 +24°C° 0.1 mm 2 mps 756 mmHg 73%
    06:00 +25°C° 0.1 mm 1 mps 755 mmHg 71%
    07:00 +25°C° 0.1 mm 1 mps 755 mmHg 70%
    08:00 +26°C° 0.1 mm 2 mps 755 mmHg 64%
    09:00 +27°C° 0.1 mm 2 mps 755 mmHg 59%
    10:00 +29°C° 0.1 mm 2 mps 755 mmHg 54%
    11:00 +29°C° 0.5 mm 3 mps 755 mmHg 54%
    12:00 +29°C° 0.5 mm 3 mps 754 mmHg 54%
    13:00 +29°C° 0.5 mm 4 mps 753 mmHg 54%
    14:00 +28°C° 0.9 mm 4 mps 753 mmHg 62%
    15:00 +27°C° 0.9 mm 4 mps 753 mmHg 70%
    16:00 +26°C° 0.9 mm 4 mps 752 mmHg 78%
    17:00 +26°C° 0.6 mm 4 mps 752 mmHg 78%
    18:00 +26°C° 0.6 mm 4 mps 752 mmHg 78%
    19:00 +25°C° 0.6 mm 4 mps 752 mmHg 78%
    20:00 +25°C° 0 mm 4 mps 753 mmHg 73%
    21:00 +25°C° 0 mm 4 mps 753 mmHg 68%
    22:00 +23°C° 0 mm 4 mps 753 mmHg 63%
    23:00 +23°C° 0 mm 4 mps 753 mmHg 63%

    24 September, Tuesday

    Time Temperature Precipitation Wind Pressure Humidity
    00:00 +23°C° 0 mm 5 mps 753 mmHg 63%
    01:00 +23°C° 0 mm 5 mps 753 mmHg 64%
    02:00 +22°C° 0 mm 4 mps 753 mmHg 65%
    03:00 +22°C° 0 mm 4 mps 753 mmHg 67%
    04:00 +21°C° 0 mm 4 mps 753 mmHg 68%
    05:00 +21°C° 0 mm 3 mps 753 mmHg 68%
    06:00 +21°C° 0 mm 3 mps 753 mmHg 68%
    07:00 +23°C° 0 mm 2 mps 753 mmHg 68%
    08:00 +24°C° 0 mm 2 mps 754 mmHg 61%
    09:00 +25°C° 0 mm 2 mps 754 mmHg 55%
    10:00 +26°C° 0 mm 3 mps 754 mmHg 49%
    11:00 +27°C° 0 mm 3 mps 754 mmHg 46%
    12:00 +28°C° 0 mm 3 mps 754 mmHg 43%
    13:00 +29°C° 0 mm 3 mps 754 mmHg 39%
    14:00 +28°C° 0 mm 4 mps 754 mmHg 40%
    15:00 +28°C° 0 mm 4 mps 754 mmHg 42%
    16:00 +28°C° 0 mm 4 mps 754 mmHg 43%
    17:00 +27°C° 0 mm 3 mps 755 mmHg 47%
    18:00 +25°C° 0 mm 3 mps 755 mmHg 51%
    19:00 +24°C° 0 mm 3 mps 755 mmHg 55%
    20:00 +24°C° 0 mm 2 mps 755 mmHg 57%
    21:00 +23°C° 0 mm 2 mps 756 mmHg 59%
    22:00 +23°C° 0 mm 2 mps 756 mmHg 62%
    23:00 +21°C° 0 mm 2 mps 756 mmHg 63%

    25 September, Wednesday

    Time Temperature Precipitation Wind Pressure Humidity
    00:00 +21°C° 0 mm 2 mps 756 mmHg 64%
    01:00 +22°C° 0 mm 1 mps 756 mmHg 65%
    02:00 +22°C° 0 mm 1 mps 755 mmHg 64%
    03:00 +21°C° 0 mm 1 mps 755 mmHg 64%
    04:00 +21°C° 0 mm 1 mps 755 mmHg 63%
    05:00 +22°C° 0 mm 1 mps 755 mmHg 61%
    06:00 +22°C° 0 mm 1 mps 755 mmHg 59%
    07:00 +22°C° 0 mm 1 mps 755 mmHg 57%
    08:00 +24°C° 0 mm 1 mps 756 mmHg 50%
    09:00 +26°C° 0 mm 1 mps 756 mmHg 43%
    10:00 +26°C° 0 mm 0 mps 756 mmHg 36%
    11:00 +29°C° 0 mm 1 mps 756 mmHg 35%
    12:00 +29°C° 0 mm 2 mps 755 mmHg 34%
    13:00 +30°C° 0 mm 3 mps 755 mmHg 34%
    14:00 +29°C° 0 mm 3 mps 755 mmHg 38%
    15:00 +29°C° 0 mm 3 mps 755 mmHg 42%
    16:00 +28°C° 0 mm 3 mps 754 mmHg 46%
    17:00 +27°C° 0 mm 2 mps 755 mmHg 53%
    18:00 +26°C° 0 mm 2 mps 755 mmHg 59%
    19:00 +24°C° 0 mm 2 mps 755 mmHg 66%
    20:00 +24°C° 0 mm 1 mps 755 mmHg 68%
    21:00 +23°C° 0 mm 1 mps 755 mmHg 71%
    22:00 +23°C° 0 mm 1 mps 755 mmHg 73%
    23:00 +23°C° 0 mm 1 mps 755 mmHg 75%
    Show more